[[{"header":{"parameterUnit":"m.s-1","parameterCategory":2,"la1":30.2992,"la2":30.254,"lo1":-89.0895,"lo2":-89.0443,"dy":0.0025,"dx":0.0025,"nx":19,"ny":19,"refTime":"2026-03-08T21:00:00:Z","depth":"0","parameterNumber":2,"parameterNumberName":"U-component_of_CURRENTS"},"data":[0,0,0,-0.1882,-0.1882,-0.1885,-0.1885,-0.1887,-0.1887,0,0,0,0,0,0,0,0,0,0,0,-0.1888,-0.1889,-0.1882,-0.1882,-0.1885,-0.1885,-0.1887,-0.1887,0,0,0,0,0,0,0,0,0,0,0,-0.1888,-0.1889,-0.1889,-0.1882,-0.1885,-0.1885,-0.1887,-0.1886,0,0,0,0,0,0,0,0,0,0,-0.1883,-0.1883,-0.1888,-0.1889,-0.1882,-0.1885,-0.1885,-0.1886,-0.1886,-0.1884,0,-0.189,0,-0.1884,-0.1887,-0.1887,0,0,0,-0.1884,-0.1883,-0.1888,-0.1889,-0.1882,-0.1885,-0.1884,-0.1886,-0.1886,-0.1884,-0.189,-0.1889,-0.1884,-0.1887,-0.1887,-0.1967,-0.1968,0,0,-0.1884,-0.1884,-0.1888,-0.1888,-0.1889,-0.1884,-0.1884,-0.1886,-0.1886,-0.189,-0.1889,-0.1884,-0.1887,-0.1887,-0.1966,-0.1967,0,0,0,-0.1882,-0.1884,-0.1888,-0.1888,-0.1887,-0.1884,-0.1884,-0.1886,-0.1889,-0.1889,-0.1884,-0.1887,-0.1887,-0.1965,-0.1967,-0.2065,0,0,0,-0.1882,-0.1882,-0.1888,-0.1888,-0.1887,-0.1885,-0.1885,-0.1889,-0.1889,-0.1884,-0.1887,-0.1887,-0.1964,-0.1966,-0.206,-0.2107,0,0,0,-0.1887,-0.1882,-0.1886,-0.1888,-0.1888,-0.1885,-0.1888,-0.1889,-0.1886,-0.1887,-0.1887,-0.1964,-0.1966,-0.2056,-0.2099,-0.2171,0,0,0,-0.1883,-0.1902,-0.1886,-0.1924,-0.1888,-0.1946,-0.1888,-0.1921,-0.1932,-0.1887,-0.1964,-0.1966,-0.2054,-0.2095,-0.2166,-0.1997,-0.2006,0,0,-0.1908,-0.1905,-0.1935,-0.1921,-0.1982,-0.1945,-0.2025,-0.2004,-0.1961,-0.1961,-0.1963,-0.2062,-0.2099,-0.217,-0.212,-0.2125,0,0,0,-0.1945,-0.1957,-0.1978,-0.2009,-0.2043,-0.2087,-0.2067,-0.2068,-0.2075,-0.1975,-0.2077,-0.2098,-0.214,-0.2028,-0.2033,-0.1964,-0.1976,-0.1976,-0.1976,-0.1916,-0.197,-0.2018,-0.208,-0.2136,-0.2187,-0.2231,-0.2227,-0.2163,-0.2187,-0.219,-0.2327,-0.2209,-0.2211,-0.2144,-0.2201,-0.2201,-0.2201,-0.2202,-0.1917,-0.1939,-0.2037,-0.2094,-0.2182,-0.2249,-0.2357,-0.2347,-0.2398,-0.2311,-0.2346,-0.2151,-0.2221,-0.2147,-0.2208,-0.2207,-0.2206,-0.2206,-0.2205,-0.1846,-0.1874,-0.1916,-0.2019,-0.2145,-0.2264,-0.2382,-0.2462,-0.2479,-0.2531,-0.2377,-0.2372,-0.2296,-0.2531,-0.2532,-0.2532,-0.2533,-0.2533,-0.2533,-0.174,-0.1802,-0.1819,-0.1951,-0.2017,-0.2167,-0.2384,-0.2448,-0.2498,-0.248,-0.2478,-0.2327,-0.2428,-0.2402,-0.2542,-0.254,-0.2539,-0.2538,-0.2538,-0.1649,-0.1661,-0.1688,-0.173,-0.1896,-0.1971,-0.2216,-0.232,-0.2429,-0.2411,-0.2326,-0.2451,-0.2403,-0.2395,-0.2368,-0.2492,-0.2492,-0.2492,-0.2492,-0.1548,-0.1574,-0.1567,-0.1606,-0.1708,-0.1874,-0.1886,-0.2025,-0.216,-0.2178,-0.2276,-0.2144,-0.2149,-0.2081,-0.208,-0.2044,-0.2084,-0.2083,-0.2083,-0.1462,-0.1487,-0.1433,-0.1492,-0.1604,-0.1705,-0.1664,-0.1741,-0.1938,-0.2069,-0.223,-0.2247,-0.2057,-0.207,-0.1957,-0.1961,-0.19,0,0]},{"header":{"parameterUnit":"m.s-1","parameterCategory":2,"la1":30.2992,"la2":30.254,"lo1":-89.0895,"lo2":-89.0443,"dy":0.0025,"dx":0.0025,"nx":19,"ny":19,"refTime":"2026-03-08T21:00:00:Z","depth":"0","parameterNumber":3,"parameterNumberName":"V-component_of_CURRENTS"},"data":[0,0,0,0.0185,0.0185,0.0188,0.0188,0.0184,0.0184,0,0,0,0,0,0,0,0,0,0,0,0.0178,0.0178,0.0185,0.0185,0.0188,0.0188,0.0184,0.0184,0,0,0,0,0,0,0,0,0,0,0,0.0178,0.0178,0.0178,0.0185,0.0188,0.0188,0.0184,0.0181,0,0,0,0,0,0,0,0,0,0,0.0178,0.0165,0.0178,0.0178,0.0185,0.0188,0.0188,0.0181,0.0181,0.0184,0,0.0189,0,0.0195,0.0185,0.0185,0,0,0,0.0173,0.0165,0.0181,0.0178,0.0186,0.0188,0.0183,0.0181,0.0181,0.0185,0.0189,0.0189,0.0195,0.0185,0.0185,0.0233,0.0233,0,0,0.0173,0.0162,0.0181,0.0181,0.0192,0.0183,0.0184,0.0181,0.0175,0.0189,0.019,0.0195,0.0185,0.0185,0.0232,0.0233,0,0,0,0.0181,0.0162,0.0177,0.0181,0.0187,0.0184,0.0184,0.0175,0.0184,0.019,0.0195,0.0185,0.0185,0.0232,0.0232,0.0216,0,0,0,0.018,0.0168,0.0178,0.0169,0.0187,0.0179,0.0177,0.0184,0.0184,0.0195,0.0185,0.0185,0.0231,0.0232,0.0215,0.017,0,0,0,0.0177,0.0167,0.0173,0.0168,0.0178,0.018,0.0188,0.0184,0.0188,0.0185,0.0185,0.0231,0.0232,0.0215,0.017,0.0174,0,0,0,0.0158,0.0146,0.0172,0.0159,0.0178,0.0191,0.0188,0.0187,0.0184,0.0185,0.0231,0.0232,0.0214,0.0171,0.0174,0.017,0.0168,0,0,0.0129,0.0142,0.0135,0.0159,0.0156,0.019,0.0195,0.0187,0.0204,0.0228,0.0229,0.0215,0.017,0.0174,0.0231,0.0227,0,0,0,0.0117,0.0108,0.0114,0.0118,0.0148,0.0162,0.0184,0.0209,0.023,0.0211,0.0242,0.0214,0.0217,0.0216,0.0213,0.04,0.0237,0.0237,0.0237,0.0026,0.0056,0.0037,0.0074,0.0094,0.0148,0.0168,0.0209,0.0235,0.0258,0.0222,0.0236,0.0238,0.0235,0.0429,0.0267,0.0267,0.0267,0.0267,-0.0053,-0.0072,-0.0028,-0.0032,0.0021,0.0041,0.0132,0.0171,0.0222,0.0243,0.0248,0.0224,0.0231,0.044,0.0266,0.0266,0.0266,0.0266,0.0267,-0.0138,-0.014,-0.013,-0.0132,-0.0114,-0.0042,-0.0023,0.0073,0.0169,0.0185,0.0199,0.0199,0.0362,0.0198,0.0197,0.0197,0.0197,0.0197,0.0197,-0.0232,-0.0217,-0.0254,-0.0237,-0.025,-0.0228,-0.0115,-0.0054,0.0075,0.0157,0.0158,0.0399,0.0214,0.0193,0.0194,0.0195,0.0195,0.0195,0.0196,-0.0326,-0.0318,-0.0382,-0.0406,-0.0427,-0.0455,-0.0331,-0.0175,-0.0061,0.0003,0.0379,0.0162,0.016,0.0163,0.0142,0.0129,0.0129,0.0129,0.0129,-0.0399,-0.0395,-0.0492,-0.0557,-0.06,-0.0564,-0.0552,-0.0326,0.0112,0.0357,0.0461,0.0518,0.0512,0.0536,0.053,0.0519,0.0602,0.0603,0.0604,-0.046,-0.0483,-0.057,-0.062,-0.0678,-0.0686,-0.0687,-0.0432,0.0282,0.0645,0.0727,0.0707,0.0815,0.079,0.0843,0.082,0.0806,0,0]}],[{"header":{"parameterUnit":"m.s-1","parameterCategory":2,"la1":30.2992,"la2":30.254,"lo1":-89.0895,"lo2":-89.0443,"dy":0.0025,"dx":0.0025,"nx":19,"ny":19,"refTime":"2026-03-08T21:00:00:Z","depth":"2","parameterNumber":2,"parameterNumberName":"U-component_of_CURRENTS"},"data":[0,0,0,-0.1488,-0.1485,-0.1442,-0.1443,-0.1484,-0.1484,0,0,0,0,0,0,0,0,0,0,0,-0.1548,-0.1547,-0.1488,-0.1484,-0.1442,-0.1443,-0.1484,-0.1484,0,0,0,0,0,0,0,0,0,0,0,-0.1549,-0.1547,-0.1546,-0.1484,-0.1441,-0.1443,-0.1484,-0.1513,0,0,0,0,0,0,0,0,0,0,-0.1551,-0.157,-0.1547,-0.1546,-0.1483,-0.1441,-0.1443,-0.1514,-0.1511,-0.1505,0,-0.1468,0,-0.1419,-0.1481,-0.1481,0,0,0,-0.1567,-0.1572,-0.1527,-0.1545,-0.1481,-0.1441,-0.1484,-0.1512,-0.1509,-0.1501,-0.1468,-0.1467,-0.142,-0.1481,-0.1481,-0.155,-0.1551,0,0,-0.157,-0.1582,-0.1529,-0.1523,-0.143,-0.1485,-0.1482,-0.151,-0.151,-0.1468,-0.1467,-0.1421,-0.1481,-0.148,-0.1549,-0.155,0,0,0,-0.152,-0.1584,-0.154,-0.1524,-0.1476,-0.1482,-0.1478,-0.1512,-0.1486,-0.1467,-0.1421,-0.1481,-0.148,-0.1548,-0.1549,-0.1692,0,0,0,-0.1526,-0.1547,-0.154,-0.1554,-0.1473,-0.1476,-0.148,-0.1487,-0.1485,-0.1421,-0.148,-0.148,-0.1547,-0.1549,-0.1686,-0.1705,0,0,0,-0.1557,-0.1551,-0.1527,-0.1553,-0.1487,-0.1474,-0.1456,-0.1487,-0.1453,-0.1481,-0.148,-0.1546,-0.1548,-0.168,-0.1696,-0.1749,0,0,0,-0.1602,-0.156,-0.1528,-0.1513,-0.1487,-0.1502,-0.1456,-0.1486,-0.1518,-0.148,-0.1547,-0.1549,-0.1678,-0.1691,-0.1744,-0.1566,-0.1575,0,0,-0.1576,-0.1558,-0.1561,-0.1529,-0.156,-0.1516,-0.1609,-0.1615,-0.1556,-0.1555,-0.1556,-0.1688,-0.1696,-0.1748,-0.1711,-0.1715,0,0,0,-0.1575,-0.1579,-0.1583,-0.1599,-0.1594,-0.1656,-0.1648,-0.1661,-0.17,-0.1562,-0.1699,-0.1698,-0.1727,-0.161,-0.1614,-0.1561,-0.1561,-0.1561,-0.156,-0.155,-0.1601,-0.1638,-0.1698,-0.1728,-0.1776,-0.1837,-0.1853,-0.1789,-0.1836,-0.1826,-0.197,-0.185,-0.185,-0.1858,-0.1859,-0.186,-0.186,-0.186,-0.1529,-0.1567,-0.1684,-0.1727,-0.1828,-0.1901,-0.1999,-0.2006,-0.2062,-0.1985,-0.2008,-0.1778,-0.1862,-0.1872,-0.187,-0.1868,-0.1867,-0.1866,-0.1865,-0.1505,-0.1537,-0.1574,-0.1675,-0.1821,-0.1929,-0.2025,-0.2104,-0.2142,-0.2191,-0.2007,-0.2001,-0.2021,-0.2191,-0.2191,-0.2191,-0.2192,-0.2192,-0.2192,-0.143,-0.1487,-0.1514,-0.1629,-0.169,-0.1814,-0.2011,-0.2065,-0.2111,-0.2113,-0.2111,-0.208,-0.2069,-0.2039,-0.2198,-0.2197,-0.2196,-0.2196,-0.2195,-0.1356,-0.138,-0.1393,-0.1432,-0.1564,-0.1597,-0.1816,-0.1907,-0.2009,-0.1994,-0.207,-0.2071,-0.199,-0.1983,-0.1949,-0.2076,-0.2076,-0.2076,-0.2076,-0.1284,-0.1315,-0.1298,-0.1312,-0.1369,-0.1493,-0.1487,-0.1608,-0.1778,-0.183,-0.1841,-0.1735,-0.1745,-0.1643,-0.1644,-0.16,-0.1637,-0.1636,-0.1636,-0.1193,-0.1225,-0.1171,-0.1225,-0.1274,-0.1322,-0.1272,-0.131,-0.1462,-0.1622,-0.1804,-0.2039,-0.1907,-0.1913,-0.1771,-0.1767,-0.1701,0,0]},{"header":{"parameterUnit":"m.s-1","parameterCategory":2,"la1":30.2992,"la2":30.254,"lo1":-89.0895,"lo2":-89.0443,"dy":0.0025,"dx":0.0025,"nx":19,"ny":19,"refTime":"2026-03-08T21:00:00:Z","depth":"2","parameterNumber":3,"parameterNumberName":"V-component_of_CURRENTS"},"data":[0,0,0,0.0042,0.0042,0.0046,0.0046,0.0033,0.0032,0,0,0,0,0,0,0,0,0,0,0,0.0037,0.0037,0.0042,0.0042,0.0046,0.0046,0.0033,0.0032,0,0,0,0,0,0,0,0,0,0,0,0.0037,0.0037,0.0037,0.0042,0.0046,0.0046,0.0033,0.0034,0,0,0,0,0,0,0,0,0,0,0.0032,0.0027,0.0037,0.0037,0.0042,0.0046,0.0046,0.0034,0.0034,0.0025,0,0.0025,0,0.0029,0.0031,0.0031,0,0,0,0.0041,0.0027,0.0033,0.0037,0.0042,0.0046,0.0044,0.0034,0.0034,0.0025,0.0024,0.0024,0.0029,0.0031,0.0031,0.0056,0.0056,0,0,0.0041,0.0034,0.0033,0.0033,0.004,0.0044,0.0044,0.0034,0.0029,0.0024,0.0024,0.0029,0.0031,0.0031,0.0055,0.0056,0,0,0,0.0041,0.0033,0.0039,0.0033,0.0036,0.0044,0.0044,0.003,0.0033,0.0024,0.0029,0.0031,0.0031,0.0055,0.0055,0.0068,0,0,0,0.0041,0.0034,0.0039,0.0034,0.0036,0.0035,0.004,0.0034,0.0033,0.0029,0.0031,0.003,0.0054,0.0055,0.0067,0.0019,0,0,0,0.0037,0.0033,0.0034,0.0034,0.0037,0.0035,0.0038,0.0034,0.0036,0.0031,0.003,0.0054,0.0055,0.0065,0.0019,0.0016,0,0,0,0.003,0.0011,0.0034,0.0014,0.0037,0.0039,0.0038,0.0034,0.003,0.0031,0.0054,0.0055,0.0065,0.0019,0.0016,-0.0014,-0.0017,0,0,-0.0001,0.0007,-0.0004,0.0016,0.001,0.0038,0.0048,0.0042,0.0046,0.0055,0.0055,0.0067,0.0019,0.0016,0.0042,0.0038,0,0,0,-0.0019,-0.003,-0.0028,-0.0025,-0.0006,0.0016,0.0035,0.006,0.0083,0.0049,0.0084,0.0052,0.005,0.0033,0.003,0.006,0.006,0.006,0.006,-0.0107,-0.0079,-0.0096,-0.006,-0.0046,0.0007,0.0031,0.007,0.0087,0.0116,0.0077,0.0095,0.008,0.0077,0.0122,0.0122,0.0122,0.0122,0.0122,-0.0181,-0.0197,-0.0147,-0.0151,-0.0094,-0.0073,0.0013,0.0053,0.0097,0.0115,0.0115,0.0064,0.0074,0.0124,0.0123,0.0123,0.0123,0.0123,0.0123,-0.0259,-0.0256,-0.0243,-0.0233,-0.0209,-0.0141,-0.0132,-0.004,0.0057,0.0071,0.005,0.005,0.0066,0.0081,0.008,0.008,0.008,0.008,0.008,-0.0344,-0.0323,-0.0352,-0.0328,-0.0338,-0.0323,-0.0226,-0.0179,-0.0063,0.0021,0.0022,0.008,0.0081,0.0064,0.0077,0.0077,0.0078,0.0078,0.0078,-0.0427,-0.0416,-0.0473,-0.0493,-0.0514,-0.0544,-0.0443,-0.0319,-0.0223,-0.0166,0.0008,0.0011,-0.001,-0.0007,-0.0027,-0.0038,-0.0038,-0.0038,-0.0038,-0.0492,-0.0487,-0.0577,-0.0638,-0.0684,-0.0651,-0.0654,-0.0466,-0.0227,-0.0086,-0.0084,-0.0062,-0.0057,-0.0079,-0.0074,-0.0095,-0.0124,-0.0124,-0.0124,-0.0545,-0.0571,-0.0651,-0.0699,-0.0758,-0.0768,-0.0766,-0.0547,-0.0201,-0.0127,-0.0091,-0.0045,-0.0006,-0.0,-0.0028,-0.0023,-0.0054,0,0]}],[{"header":{"parameterUnit":"m.s-1","parameterCategory":2,"la1":30.2992,"la2":30.254,"lo1":-89.0895,"lo2":-89.0443,"dy":0.0025,"dx":0.0025,"nx":19,"ny":19,"refTime":"2026-03-08T21:00:00:Z","depth":"4","parameterNumber":2,"parameterNumberName":"U-component_of_CURRENTS"},"data":[0,0,0,-0.054,-0.0543,-0.0626,-0.0626,-0.055,-0.0549,0,0,0,0,0,0,0,0,0,0,0,-0.0481,-0.0482,-0.054,-0.0543,-0.0626,-0.0626,-0.055,-0.0549,0,0,0,0,0,0,0,0,0,0,0,-0.0481,-0.0482,-0.0482,-0.0544,-0.0626,-0.0626,-0.055,-0.0525,0,0,0,0,0,0,0,0,0,0,-0.0463,-0.0453,-0.0481,-0.0482,-0.0544,-0.0626,-0.0626,-0.0525,-0.0526,-0.047,0,-0.0491,0,-0.0543,-0.0543,-0.0542,0,0,0,-0.0509,-0.0452,-0.0481,-0.0482,-0.0546,-0.0626,-0.0579,-0.0527,-0.0528,-0.0471,-0.0491,-0.0491,-0.0542,-0.0542,-0.0542,-0.0469,-0.0469,0,0,-0.0505,-0.0484,-0.0481,-0.0482,-0.0574,-0.0577,-0.0582,-0.0529,-0.0525,-0.0491,-0.049,-0.054,-0.0542,-0.0541,-0.0469,-0.0469,0,0,0,-0.0514,-0.0481,-0.0513,-0.0482,-0.0526,-0.058,-0.0586,-0.0526,-0.054,-0.049,-0.0539,-0.0541,-0.054,-0.0469,-0.0469,-0.0642,0,0,0,-0.051,-0.049,-0.0511,-0.0498,-0.0529,-0.0557,-0.0584,-0.0542,-0.054,-0.054,-0.0541,-0.0539,-0.0469,-0.0469,-0.0638,-0.0702,0,0,0,-0.0476,-0.0487,-0.05,-0.0497,-0.0554,-0.056,-0.0569,-0.0543,-0.057,-0.0542,-0.0539,-0.0469,-0.0469,-0.0634,-0.0695,-0.0782,0,0,0,-0.0445,-0.0456,-0.0499,-0.052,-0.0553,-0.0583,-0.0571,-0.0581,-0.056,-0.0541,-0.0469,-0.0469,-0.0633,-0.069,-0.0777,-0.0612,0,0,0,-0.0438,-0.0454,-0.0466,-0.0508,-0.0547,-0.0569,-0.0593,-0.0567,-0.0532,-0.0468,-0.0468,-0.0639,-0.0694,-0.0781,-0.0596,0,0,0,0,-0.045,-0.046,-0.0478,-0.0515,-0.0548,-0.0597,-0.0579,-0.0601,-0.0613,-0.0529,-0.0585,-0.0612,-0.0663,-0.0548,-0.0468,-0.0468,-0.0468,-0.0468,-0.0468,-0.0411,-0.0441,-0.0467,-0.0508,-0.0527,-0.0597,-0.0671,-0.0684,-0.062,-0.0664,-0.0715,-0.0841,-0.072,-0.0672,-0.0673,-0.0674,-0.0674,-0.0675,-0.0675,-0.0424,-0.043,-0.0474,-0.0507,-0.0558,-0.0576,-0.0711,-0.0762,-0.09,-0.0807,-0.0849,-0.0687,-0.0691,-0.0688,-0.0685,-0.0684,-0.0682,-0.0681,-0.0681,-0.04,-0.04,-0.0448,-0.0528,-0.0584,-0.0639,-0.0815,-0.0957,-0.1008,-0.1129,-0.0955,-0.0947,-0.0979,-0.1129,-0.1129,-0.113,-0.1131,-0.1131,-0.1132,-0.0344,-0.0395,-0.0425,-0.055,-0.0615,-0.0733,-0.0933,-0.1031,-0.1116,-0.111,-0.1149,-0.0993,-0.0978,-0.1001,-0.1142,-0.114,-0.1139,-0.1138,-0.1137,-0.0278,-0.031,-0.0396,-0.047,-0.0653,-0.0787,-0.0964,-0.1068,-0.118,-0.1189,-0.1106,-0.1104,-0.1026,-0.101,-0.1031,-0.1187,-0.1186,-0.1184,0,-0.021,-0.0231,-0.0316,-0.0438,-0.0614,-0.0774,-0.087,-0.0968,-0.1061,-0.1028,-0.1152,-0.1053,-0.1051,-0.0951,-0.0935,-0.0952,0,0,0,-0.0162,-0.0183,-0.023,-0.0348,-0.0563,-0.0714,-0.088,-0.0898,-0.105,-0.1079,-0.1146,-0.1156,-0.1089,-0.1174,-0.1049,-0.1031,-0.1061,0,0]},{"header":{"parameterUnit":"m.s-1","parameterCategory":2,"la1":30.2992,"la2":30.254,"lo1":-89.0895,"lo2":-89.0443,"dy":0.0025,"dx":0.0025,"nx":19,"ny":19,"refTime":"2026-03-08T21:00:00:Z","depth":"4","parameterNumber":3,"parameterNumberName":"V-component_of_CURRENTS"},"data":[0,0,0,0.0049,0.0049,0.01,0.01,0.0194,0.0195,0,0,0,0,0,0,0,0,0,0,0,0.0032,0.0032,0.0048,0.0049,0.01,0.01,0.0194,0.0195,0,0,0,0,0,0,0,0,0,0,0,0.0032,0.0032,0.0032,0.0049,0.01,0.01,0.0194,0.0151,0,0,0,0,0,0,0,0,0,0,0.0099,0.008,0.0032,0.0032,0.005,0.01,0.01,0.0149,0.0154,0.0177,0,0.0179,0,0.0185,0.0201,0.0201,0,0,0,0.0059,0.0075,0.0084,0.0032,0.005,0.0099,0.008,0.0151,0.0157,0.0184,0.018,0.0183,0.0187,0.0202,0.0202,0.0266,0.0266,0,0,0.0057,0.005,0.0079,0.0087,0.0056,0.0078,0.0081,0.0154,0.0161,0.018,0.0185,0.0188,0.0202,0.0203,0.0266,0.0266,0,0,0,0.0042,0.0048,0.0054,0.0083,0.0088,0.0079,0.0083,0.0158,0.0159,0.0186,0.0189,0.0203,0.0204,0.0266,0.0266,0.0212,0,0,0,0.0041,0.0039,0.0053,0.0051,0.0086,0.012,0.0085,0.0154,0.0162,0.0189,0.0203,0.0205,0.0266,0.0266,0.0213,0.0146,0,0,0,0.0031,0.0038,0.004,0.005,0.0066,0.0119,0.0124,0.0155,0.0164,0.0202,0.0205,0.0266,0.0266,0.0214,0.015,0.012,0,0,0,0.0028,0.0027,0.004,0.0042,0.0066,0.0089,0.0124,0.0158,0.0189,0.0203,0.0266,0.0266,0.0215,0.0153,0.0123,0.0091,0,0,0,0.0023,0.0027,0.0026,0.0038,0.0037,0.0084,0.009,0.0148,0.0198,0.0246,0.0247,0.0213,0.0151,0.0121,0.0096,0,0,0,0,0.0022,0.0013,0.0019,0.002,0.0047,0.0045,0.0111,0.0142,0.0194,0.0214,0.0229,0.0191,0.0174,0.0165,0.0266,0.0266,0.0266,0.0266,0.0266,-0.0011,-0.0005,-0.002,-0.0016,-0.0003,0.0034,0.0049,0.0101,0.017,0.0189,0.0161,0.0113,0.0105,0.0201,0.02,0.02,0.02,0.02,0.02,-0.0057,-0.0073,-0.0074,-0.0087,-0.008,-0.0069,-0.0019,0.0028,0.0063,0.0125,0.0113,0.0126,0.0195,0.0196,0.0196,0.0197,0.0197,0.0198,0.0198,-0.0098,-0.0103,-0.0119,-0.0159,-0.018,-0.0151,-0.018,-0.0111,-0.0015,-0.0021,-0.0012,0.0064,0.0052,-0.0012,-0.0012,-0.0012,-0.0013,-0.0013,-0.0013,-0.0127,-0.0146,-0.0194,-0.0231,-0.027,-0.0294,-0.0272,-0.0245,-0.0159,-0.0111,-0.0045,0.0041,0.0048,0.004,-0.002,-0.0019,-0.0018,-0.0017,-0.0017,-0.0164,-0.0176,-0.0258,-0.031,-0.0402,-0.0427,-0.0408,-0.0345,-0.0328,-0.0276,-0.0144,-0.0136,-0.0129,-0.0118,-0.0131,-0.0245,-0.0245,-0.0246,0,-0.0187,-0.0197,-0.0312,-0.0418,-0.051,-0.0506,-0.0503,-0.0454,-0.0342,-0.0334,-0.0314,-0.0168,-0.016,-0.0153,-0.0144,-0.0161,0,0,0,-0.0217,-0.024,-0.0332,-0.0433,-0.0554,-0.0524,-0.0496,-0.0471,-0.0355,-0.0338,-0.0263,-0.0259,-0.0142,-0.0039,-0.0009,-0.0001,-0.0013,0,0]}]]